Regional Weather Roundup
Issued by NWS

Home | Current Version | Previous Version | Graphics & Text | Print | Product List | Glossary On
Versions: 1 2 3 4 5 6 7 8 9 10 11 12 13 14 15 16 17 18 19 20 21 22 23 24 25 26 27 28 29 30 31 32 33 34 35 36 37 38 39 40 41 42 43 44 45 46 47 48 49 50
000
ASUS44 KMEG 261700
RWRTN
TENNESSEE HOURLY STATE WEATHER ROUNDUP
NATIONAL WEATHER SERVICE MEMPHIS TN
1200 PM CDT SUN APR 26 2015

TNZ002-004-019-021-049-052-054-088>092-261800-
WEST TENNESSEE

CITY           SKY/WX    TMP DP  RH WIND       PRES   REMARKS
MEMPHIS INTL   CLOUDY    65  56  72 N8        29.84R
NWS MEMPHIS      N/A     63 N/A N/A MISG        N/A
JACKSON        CLOUDY    57  51  80 N10       29.85S
DYERSBURG      CLOUDY    55  39  54 NE12      29.87S
UNION CITY     CLOUDY    52  32  46 NE12      29.87R
PARIS          CLOUDY    48  46  93 N9        29.87R
LEXINGTON      CLOUDY    55  50  82 N10       29.82F
SAVANNAH       CLOUDY    63  32  31 N6        29.81S
$$

TNZ008-025-027-028-033-062-065-066-261800-
NORTH MIDDLE TENNESSEE

CITY           SKY/WX    TMP DP  RH WIND       PRES   REMARKS
NASHVILLE      CLOUDY    53  48  83 N8        29.83S
CLARKSVILLE    CLOUDY    51  47  86 N10       29.86S
COOKEVILLE     CLOUDY    52  50  93 N8        29.79S
CROSSVILLE     CLOUDY    54  50  86 NW9       29.77S
$$

TNZ061-075-076-078-094-096-097-261800-
SOUTH MIDDLE TENNESSEE

CITY           SKY/WX    TMP DP  RH WIND       PRES   REMARKS
FAYETTEVILLE   PTSUNNY   63  55  77 N10       29.77S
TULLAHOMA      CLOUDY    57  54  88 N7        29.79S
WINCHESTER     CLOUDY    63  55  77 N12       29.78R
MCMINNVILLE    CLOUDY    57  54  88 N10       29.79R
COLUMBIA       CLOUDY    57  32  38 N8        29.80R
SHELBYVILLE    CLOUDY    59  54  82 N12       29.80S
$$

TNZ017-018-042-046-047-261800-
NORTHEAST TENNESSEE

CITY           SKY/WX    TMP DP  RH WIND       PRES   REMARKS
TRI CITIES     CLOUDY    59  51  75 N10       29.70R
ELIZABETHTON   PTSUNNY   61  52  72 NW9       29.69R
$$

TNZ012-013-036-069-073-074-261800-
CENTRAL EAST TENNESSEE

CITY           SKY/WX    TMP DP  RH WIND       PRES   REMARKS
KNOXVILLE      CLOUDY    67  55  65 W14       29.70R
OAK RIDGE      CLOUDY    65  54  67 NW3       29.73R
GATLINBURG     CLOUDY    61  55  82 N5        29.69S
$$

TNZ083-085-099-261800-
SOUTHEAST TENNESSEE

CITY           SKY/WX    TMP DP  RH WIND       PRES   REMARKS
CHATTANOOGA    PTSUNNY   71  57  61 W9        29.72F
$$

SKY/WX REPORTED AS FAIR MEANS FEW OR NO CLOUDS BELOW
12 THOUSAND FEET.



USA.gov is the U.S. government's official web portal to all federal, state and local government web resources and services.